Flag for Syria Weather past 2 weeks in Aleppo, Syria

Now
77 °F

Clear.


Feels Like: 78 °F
Forecast: 77 / 104 °F
Wind: 2 mph from North

Location: Gaziantep Airport

Current Time: Aug 5, 2015 at 1:38:56 AM

Latest Report: Aug 5, 2015 at 12:50 AM


Visibility: 10 mi

Pressure: 29.80 "Hg

Humidity: 32%

Dew point: 45 °F

Location of AleppoLocation

Historic Weather in Aleppo — Graph

°F

Aleppo temperature yesterday

Maximum temperature yesterday: 104 °F (at 12:50 PM)
Minimum temperature yesterday: 70 °F (at 5:20 AM)
Average temperature yesterday: 89 °F

Past Weeks' High & Low Weather Summary

 TemperatureHumidityPressure
High106 °F (Aug 3, 3:50 PM)83% (Jul 31, 4:50 AM)29.89 "Hg (Jul 31, 4:50 AM)
Low61 °F (Jul 26, 4:20 AM)7% (Jul 21, 3:20 PM)29.62 "Hg (Jul 21, 5:20 PM)
Average87 °F31%29.77 "Hg
* Reported Jul 21 12:20 AM — Aug 5 12:20 AM, Aleppo, Weather by CustomWeather, © 2015

Note: Actual official high and low records may vary slightly from our data, if they occured in-between our weather recording intervals... More about our weather records

Advertising

Aleppo weather history for previous 24 hours

 ConditionsComfort  
Time TempWeatherWind HumidityBarometerVisibility
12:20 AM
Wed, Aug 5
79 °FClear.2 mph28%29.80 "Hg10 mi
11:50 PM
Tue, Aug 4
79 °FClear.2 mph28%29.80 "Hg10 mi
11:20 PM82 °FClear.2 mph25%29.80 "Hg10 mi
10:50 PM79 °FClear.No wind30%29.80 "Hg10 mi
10:20 PM81 °FClear.No wind30%29.80 "Hg10 mi
9:50 PM81 °FClear.5 mph28%29.80 "Hg10 mi
9:20 PM82 °FClear.No wind26%29.80 "Hg10 mi
8:50 PM86 °FClear.No wind24%29.80 "Hg10 mi
8:20 PM88 °FSunny.2 mph21%29.80 "Hg10 mi
7:50 PM93 °FSunny.5 mph17%29.80 "Hg10 mi
7:20 PM97 °FSunny.7 mph14%29.80 "Hg10 mi
6:50 PM99 °FPassing clouds.12 mph13%29.80 "HgN/A
6:20 PM100 °FSunny.9 mph14%29.80 "Hg10 mi
5:50 PM102 °FSunny.14 mph12%29.80 "Hg10 mi
5:20 PM102 °FSunny.15 mph12%29.80 "Hg10 mi
4:50 PM102 °FPassing clouds.15 mph11%29.80 "HgN/A
4:20 PM102 °FPassing clouds.17 mph11%29.80 "HgN/A
3:50 PM104 °FPassing clouds.12 mph11%29.80 "HgN/A
3:20 PM104 °FPassing clouds.13 mph10%29.80 "HgN/A
2:50 PM104 °FPassing clouds.15 mph9%29.80 "HgN/A
2:20 PM104 °FPassing clouds.14 mph10%29.83 "HgN/A
1:50 PM102 °FPassing clouds.14 mph11%29.83 "HgN/A
1:20 PM102 °FPassing clouds.16 mph11%29.83 "HgN/A
12:50 PM104 °FPassing clouds.7 mph9%29.83 "HgN/A
12:20 PM102 °FSunny.13 mph11%29.83 "Hg10 mi
11:50 AM102 °FSunny.12 mph11%29.83 "Hg10 mi
11:20 AM102 °FPassing clouds.8 mph12%29.86 "HgN/A
10:50 AM100 °FPassing clouds.7 mph14%29.86 "HgN/A
10:20 AM99 °FPassing clouds.7 mph14%29.86 "HgN/A
9:50 AM99 °FSunny.2 mph18%29.86 "Hg10 mi
9:20 AM95 °FSunny.No wind23%29.86 "Hg10 mi
8:50 AM91 °FSunny.1 mph32%29.86 "Hg10 mi
8:20 AM88 °FSunny.No wind29%29.86 "Hg10 mi
7:50 AM82 °FSunny.No wind32%29.86 "Hg10 mi
7:20 AM77 °FSunny.No wind36%29.86 "Hg10 mi
6:50 AM73 °FSunny.No wind36%29.83 "Hg10 mi
6:20 AM72 °FClear.No wind44%29.83 "Hg10 mi
5:50 AM73 °FClear.1 mph36%29.83 "Hg10 mi
5:20 AM70 °FClear.No wind43%29.83 "Hg10 mi
4:50 AM72 °FClear.No wind33%29.83 "Hg10 mi
4:20 AM73 °FClear.No wind33%29.83 "Hg10 mi
3:50 AM73 °FClear.No wind31%29.83 "Hg10 mi
3:20 AM73 °FClear.No wind31%29.83 "Hg10 mi
2:50 AM75 °FClear.No wind31%29.83 "Hg10 mi
2:20 AM73 °FClear.No wind31%29.83 "Hg10 mi
1:50 AM75 °FClear.No wind31%29.83 "Hg10 mi
1:20 AM77 °FClear.No wind28%29.83 "Hg10 mi
Weather by CustomWeather, © 2015

See weather overviewHow to use our weather pages